Location: Unspecified
(45.3712°N, 0.6436°E)
Time: 11:38:35
(UTC+02:00)

ISS - Pass Details

Date: 21 July 2018
Orbit: 402 x 408 km, 51.6° (Epoch: 17 July)

Event Time Altitude Azimuth Distance (km) Brightness Sun altitude
Rises 01:19:40 0° 278° (W) 2,323 0.3 -23.3°
Reaches altitude 10° 01:21:56 10° 290° (WNW) 1,465 -0.6 -23.4°
Maximum altitude 01:24:49 28° 352° (N) 798 -1.7 -23.5°
Drops below altitude 10° 01:27:44 10° 54° (NE) 1,469 -0.7 -23.6°
Sets 01:30:00 0° 66° (ENE) 2,331 0.2 -23.7°
